Powrót do katalogu

STARLINK-30568

AktywnyŁącznośćVLEO
NORAD 58051·PAYLOAD·🇺🇸 United States

Wystrzelony Oct 13, 2023 z Cape Canaveral Space Force Station

Loading…

Następne Przeloty (najbliższe 24 godziny)

TLE

ŚwieżeSource: CelesTrak SupGP

Epoka: Sep 15, 2026, 03:10 UTC

1 58051C 23158A   26258.13243056 -.00048507  00000+0 -17563-2 0  2582
2 58051  43.0043  37.5855 0001540 263.6338 253.5607 15.27613524    14

Śledź STARLINK-30568 w czasie rzeczywistym z AllMySat

Download on the App Store